﻿lat,lon,datetime,unit,value
9.317,39.567,2010-01-01 00:00:00,mm/month,0
9.317,39.567,2010-02-01 00:00:00,mm/month,0
9.317,39.567,2010-03-01 00:00:00,mm/month,0
9.317,39.567,2010-04-01 00:00:00,mm/month,0
9.317,39.567,2010-05-01 00:00:00,mm/month,0
9.317,39.567,2010-06-01 00:00:00,mm/month,0
9.317,39.567,2010-07-01 00:00:00,mm/month,0
9.317,39.567,2010-08-01 00:00:00,mm/month,0
9.317,39.567,2010-09-01 00:00:00,mm/month,0
9.317,39.567,2010-10-01 00:00:00,mm/month,0
9.317,39.567,2010-11-01 00:00:00,mm/month,0
9.317,39.567,2010-12-01 00:00:00,mm/month,0
9.317,39.567,2011-01-01 00:00:00,mm/month,0
9.317,39.567,2011-02-01 00:00:00,mm/month,0
9.317,39.567,2011-03-01 00:00:00,mm/month,0
9.317,39.567,2011-04-01 00:00:00,mm/month,0
9.317,39.567,2011-05-01 00:00:00,mm/month,0
9.317,39.567,2011-06-01 00:00:00,mm/month,0
9.317,39.567,2011-07-01 00:00:00,mm/month,0
9.317,39.567,2011-08-01 00:00:00,mm/month,0
9.317,39.567,2011-09-01 00:00:00,mm/month,0
9.317,39.567,2011-10-01 00:00:00,mm/month,0
9.317,39.567,2011-11-01 00:00:00,mm/month,0
9.317,39.567,2011-12-01 00:00:00,mm/month,0
9.317,39.567,2012-01-01 00:00:00,mm/month,0
9.317,39.567,2012-02-01 00:00:00,mm/month,0
9.317,39.567,2012-03-01 00:00:00,mm/month,0
9.317,39.567,2012-04-01 00:00:00,mm/month,0
9.317,39.567,2012-05-01 00:00:00,mm/month,0
9.317,39.567,2012-06-01 00:00:00,mm/month,0
9.317,39.567,2012-07-01 00:00:00,mm/month,0
9.317,39.567,2012-08-01 00:00:00,mm/month,0
9.317,39.567,2012-09-01 00:00:00,mm/month,0
9.317,39.567,2012-10-01 00:00:00,mm/month,0
9.317,39.567,2012-11-01 00:00:00,mm/month,0
9.317,39.567,2012-12-01 00:00:00,mm/month,0
9.317,39.567,2013-01-01 00:00:00,mm/month,55.7
9.317,39.567,2013-02-01 00:00:00,mm/month,0
9.317,39.567,2013-03-01 00:00:00,mm/month,80.6
9.317,39.567,2013-04-01 00:00:00,mm/month,54
9.317,39.567,2013-05-01 00:00:00,mm/month,61
9.317,39.567,2013-06-01 00:00:00,mm/month,164.9
9.317,39.567,2013-07-01 00:00:00,mm/month,596.7
9.317,39.567,2013-08-01 00:00:00,mm/month,332.1
9.317,39.567,2013-09-01 00:00:00,mm/month,194.5
9.317,39.567,2013-10-01 00:00:00,mm/month,221.6
9.317,39.567,2013-11-01 00:00:00,mm/month,60.2
9.317,39.567,2013-12-01 00:00:00,mm/month,0
9.317,39.567,2014-01-01 00:00:00,mm/month,0
9.317,39.567,2014-02-01 00:00:00,mm/month,26.6
9.317,39.567,2014-03-01 00:00:00,mm/month,193.6
9.317,39.567,2014-04-01 00:00:00,mm/month,347.8
9.317,39.567,2014-05-01 00:00:00,mm/month,307.1
9.317,39.567,2014-06-01 00:00:00,mm/month,10.1
9.317,39.567,2014-07-01 00:00:00,mm/month,389.9
9.317,39.567,2014-08-01 00:00:00,mm/month,483.1
9.317,39.567,2014-09-01 00:00:00,mm/month,299.8
9.317,39.567,2014-10-01 00:00:00,mm/month,252.1
9.317,39.567,2014-11-01 00:00:00,mm/month,0
9.317,39.567,2014-12-01 00:00:00,mm/month,0
9.317,39.567,2015-01-01 00:00:00,mm/month,0
9.317,39.567,2015-02-01 00:00:00,mm/month,0
9.317,39.567,2015-03-01 00:00:00,mm/month,0
9.317,39.567,2015-04-01 00:00:00,mm/month,0
9.317,39.567,2015-05-01 00:00:00,mm/month,0
9.317,39.567,2015-06-01 00:00:00,mm/month,0
9.317,39.567,2015-07-01 00:00:00,mm/month,0
9.317,39.567,2015-08-01 00:00:00,mm/month,0
9.317,39.567,2015-09-01 00:00:00,mm/month,0
9.317,39.567,2015-10-01 00:00:00,mm/month,0
9.317,39.567,2015-11-01 00:00:00,mm/month,0
9.317,39.567,2015-12-01 00:00:00,mm/month,0
